Location: Unspecified
(48.8656°N, 0.0000°E)
Time: 14:44:21
(UTC+00:00)

S-56A Canister/Altair - Visible Passes

Search period start: 16 June 2019 00:00
Search period end: 26 June 2019 00:00
Orbit: 633 x 2499 km, 38.9° (Epoch: 15 June)

Date Brightness Start Highest point End Pass type
(mag) Time Alt. Az. Time Alt. Az. Time Alt. Az.
16 Jun 8.6 21:00:51 10° WSW 21:04:39 22° SSW 21:08:02 10° SE visible
17 Jun 9.3 22:34:20 10° SSW 22:34:20 10° SSW 22:34:20 10° SSW visible
18 Jun 9.2 22:00:32 10° SW 22:02:18 12° SSW 22:03:15 11° SSW visible
19 Jun 9.1 21:27:19 10° WSW 21:29:52 14° SSW 21:32:09 10° S visible
20 Jun 9.2 20:54:12 10° WSW 20:57:26 17° SSW 21:00:21 10° SSE visible
